{"data":{"norad_id":53085,"epoch":"2026-09-19T22:26:55.116960Z","epoch_age_seconds":121090,"freshness":"FRESH","line1":"1 53085U 22077AU  26262.93536015  .00000558  00000+0  19618-4 0  9995","line2":"2 53085  97.2856  78.5843 0001519  89.9980 270.1437 15.33436553230269","mean_motion":15.33436553,"eccentricity":0.0001519,"inclination_deg":97.2856,"raan_deg":78.5843,"arg_perigee_deg":89.998,"mean_anomaly_deg":270.1437,"bstar":1.9618e-5,"rev_number":23026,"period_min":93.906721943128,"perigee_km":464.52874808641,"apogee_km":466.60786575865,"semimajor_km":6843.7053069225,"source":"CELESTRAK","updated_at":"2026-09-20T09:00:40.177666Z"}}